Time,TemperatureF,DewpointF,PressureIn,WindDirection,WindDirectionDegrees,WindSpeedMPH,WindSpeedGustMPH,Humidity,HourlyPrecipIn,Conditions,Clouds,dailyrainin,SoftwareType,DateUTC
2013-06-12 04:00:00,47.0,-99.9,29.89,SSW,200,6.0,-999.0,-999,-99.99,,,-99.99,,2013-06-12 04:00:00,
2013-06-12 04:23:00,47.0,-99.9,29.89,SSW,200,6.0,-999.0,-999,-99.99,,,-99.99,,2013-06-12 04:23:00,
2013-06-12 04:34:00,47.0,-99.9,29.89,SSW,200,6.0,-999.0,-999,-99.99,,,-99.99,,2013-06-12 04:34:00,
2013-06-12 04:43:00,47.0,-99.9,29.89,SSW,200,6.0,-999.0,-999,-99.99,,,-99.99,,2013-06-12 04:43:00,
2013-06-12 04:53:00,47.0,-99.9,29.89,SSW,200,6.0,-999.0,-999,-99.99,,,-99.99,,2013-06-12 04:53:00,
2013-06-12 05:00:00,44.0,-99.9,29.91,WNW,300,3.0,-999.0,-999,-99.99,,,-99.99,,2013-06-12 05:00:00,
2013-06-12 05:22:00,44.0,-99.9,29.91,WNW,300,3.0,-999.0,-999,-99.99,,,-99.99,,2013-06-12 05:22:00,
2013-06-12 05:32:00,44.0,-99.9,29.91,WNW,300,3.0,-999.0,-999,-99.99,,,-99.99,,2013-06-12 05:32:00,
2013-06-12 05:43:00,44.0,-99.9,29.91,WNW,300,3.0,-999.0,-999,-99.99,,,-99.99,,2013-06-12 05:43:00,
2013-06-12 05:52:00,44.0,-99.9,29.91,WNW,300,3.0,-999.0,-999,-99.99,,,-99.99,,2013-06-12 05:52:00,
2013-06-12 06:22:00,45.0,-99.9,29.90,NNW,340,9.0,-999.0,-999,-99.99,,,-99.99,,2013-06-12 06:22:00,
2013-06-12 06:32:00,45.0,-99.9,29.90,NNW,340,9.0,-999.0,-999,-99.99,,,-99.99,,2013-06-12 06:32:00,
2013-06-12 06:42:00,45.0,-99.9,29.90,NNW,340,9.0,-999.0,-999,-99.99,,,-99.99,,2013-06-12 06:42:00,
2013-06-12 06:52:00,45.0,-99.9,29.90,NNW,340,9.0,-999.0,-999,-99.99,,,-99.99,,2013-06-12 06:52:00,
2013-06-12 07:00:00,46.0,-99.9,29.90,North,10,10.0,-999.0,-999,-99.99,,,-99.99,,2013-06-12 07:00:00,
2013-06-12 07:33:00,46.0,-99.9,29.90,North,10,10.0,-999.0,-999,-99.99,,,-99.99,,2013-06-12 07:33:00,
2013-06-12 07:43:00,46.0,-99.9,29.90,North,10,10.0,-999.0,-999,-99.99,,,-99.99,,2013-06-12 07:43:00,
2013-06-12 07:53:00,46.0,-99.9,29.90,North,10,10.0,-999.0,-999,-99.99,,,-99.99,,2013-06-12 07:53:00,
2013-06-12 08:00:00,49.0,-99.9,29.89,North,350,10.0,-999.0,-999,-99.99,,,-99.99,,2013-06-12 08:00:00,
2013-06-12 08:33:00,49.0,-99.9,29.89,North,350,10.0,-999.0,-999,-99.99,,,-99.99,,2013-06-12 08:33:00,
2013-06-12 08:43:00,49.0,-99.9,29.89,North,350,10.0,-999.0,-999,-99.99,,,-99.99,,2013-06-12 08:43:00,
2013-06-12 08:53:00,49.0,-99.9,29.89,North,350,10.0,-999.0,-999,-99.99,,,-99.99,,2013-06-12 08:53:00,
2013-06-12 09:00:00,51.0,-99.9,29.89,WSW,240,5.0,-999.0,-999,-99.99,,,-99.99,,2013-06-12 09:00:00,
2013-06-12 09:34:00,51.0,-99.9,29.89,WSW,240,5.0,-999.0,-999,-99.99,,,-99.99,,2013-06-12 09:34:00,
2013-06-12 09:43:00,51.0,-99.9,29.89,WSW,240,5.0,-999.0,-999,-99.99,,,-99.99,,2013-06-12 09:43:00,
2013-06-12 09:53:00,51.0,-99.9,29.89,WSW,240,5.0,-999.0,-999,-99.99,,,-99.99,,2013-06-12 09:53:00,
2013-06-12 10:00:00,51.0,-99.9,29.90,West,260,5.0,-999.0,-999,-99.99,,,-99.99,,2013-06-12 10:00:00,
2013-06-12 10:43:00,51.0,-99.9,29.90,West,260,5.0,-999.0,-999,-99.99,,,-99.99,,2013-06-12 10:43:00,
2013-06-12 10:53:00,51.0,-99.9,29.90,West,260,5.0,-999.0,-999,-99.99,,,-99.99,,2013-06-12 10:53:00,
2013-06-12 11:00:00,50.0,-99.9,29.91,West,270,6.0,-999.0,-999,-99.99,,,-99.99,,2013-06-12 11:00:00,
2013-06-12 11:34:00,50.0,-99.9,29.91,West,270,6.0,-999.0,-999,-99.99,,,-99.99,,2013-06-12 11:34:00,
2013-06-12 11:43:00,50.0,-99.9,29.91,West,270,6.0,-999.0,-999,-99.99,,,-99.99,,2013-06-12 11:43:00,
2013-06-12 11:54:00,50.0,-99.9,29.91,West,270,6.0,-999.0,-999,-99.99,,,-99.99,,2013-06-12 11:54:00,
2013-06-12 12:00:00,50.0,-99.9,29.91,WSW,250,2.0,-999.0,-999,-99.99,,,-99.99,,2013-06-12 12:00:00,
2013-06-12 12:43:00,50.0,-99.9,29.91,WSW,250,2.0,-999.0,-999,-99.99,,,-99.99,,2013-06-12 12:43:00,
2013-06-12 12:53:00,50.0,-99.9,29.91,WSW,250,2.0,-999.0,-999,-99.99,,,-99.99,,2013-06-12 12:53:00,
2013-06-12 13:00:00,51.0,-99.9,29.91,ESE,120,1.0,-999.0,-999,-99.99,,,-99.99,,2013-06-12 13:00:00,
2013-06-12 13:43:00,51.0,-99.9,29.91,ESE,120,1.0,-999.0,-999,-99.99,,,-99.99,,2013-06-12 13:43:00,
2013-06-12 13:53:00,51.0,-99.9,29.91,ESE,120,1.0,-999.0,-999,-99.99,,,-99.99,,2013-06-12 13:53:00,
2013-06-12 14:00:00,54.0,-99.9,29.91,ESE,110,5.0,-999.0,-999,-99.99,,,-99.99,,2013-06-12 14:00:00,
2013-06-12 14:33:00,54.0,-99.9,29.91,ESE,110,5.0,-999.0,-999,-99.99,,,-99.99,,2013-06-12 14:33:00,
2013-06-12 14:43:00,54.0,-99.9,29.91,ESE,110,5.0,-999.0,-999,-99.99,,,-99.99,,2013-06-12 14:43:00,
2013-06-12 14:53:00,54.0,-99.9,29.91,ESE,110,5.0,-999.0,-999,-99.99,,,-99.99,,2013-06-12 14:53:00,
2013-06-12 15:00:00,57.0,-99.9,29.88,East,100,6.0,-999.0,-999,-99.99,,,-99.99,,2013-06-12 15:00:00,
2013-06-12 15:43:00,57.0,-99.9,29.88,East,100,6.0,-999.0,-999,-99.99,,,-99.99,,2013-06-12 15:43:00,
2013-06-12 15:52:00,57.0,-99.9,29.88,East,100,6.0,-999.0,-999,-99.99,,,-99.99,,2013-06-12 15:52:00,
2013-06-12 16:00:00,61.0,-99.9,29.87,SE,140,7.0,-999.0,-999,-99.99,,,-99.99,,2013-06-12 16:00:00,
2013-06-12 16:43:00,61.0,-99.9,29.87,SE,140,7.0,-999.0,-999,-99.99,,,-99.99,,2013-06-12 16:43:00,
2013-06-12 16:53:00,61.0,-99.9,29.87,SE,140,7.0,-999.0,-999,-99.99,,,-99.99,,2013-06-12 16:53:00,
2013-06-12 17:00:00,68.0,-99.9,29.86,South,180,5.0,-999.0,-999,-99.99,,,-99.99,,2013-06-12 17:00:00,
2013-06-12 17:33:00,68.0,-99.9,29.86,South,180,5.0,-999.0,-999,-99.99,,,-99.99,,2013-06-12 17:33:00,
2013-06-12 17:43:00,68.0,-99.9,29.86,South,180,5.0,-999.0,-999,-99.99,,,-99.99,,2013-06-12 17:43:00,
2013-06-12 17:52:00,68.0,-99.9,29.86,South,180,5.0,-999.0,-999,-99.99,,,-99.99,,2013-06-12 17:52:00,
2013-06-12 18:00:00,66.0,-99.9,29.84,ESE,120,12.0,-999.0,-999,-99.99,,,-99.99,,2013-06-12 18:00:00,
2013-06-12 18:43:00,66.0,-99.9,29.84,ESE,120,12.0,-999.0,-999,-99.99,,,-99.99,,2013-06-12 18:43:00,
2013-06-12 18:53:00,66.0,-99.9,29.84,ESE,120,12.0,-999.0,-999,-99.99,,,-99.99,,2013-06-12 18:53:00,
2013-06-12 19:00:00,68.0,-99.9,29.84,WSW,240,17.0,-999.0,-999,-99.99,,,-99.99,,2013-06-12 19:00:00,
2013-06-12 19:33:00,68.0,-99.9,29.84,WSW,240,17.0,-999.0,-999,-99.99,,,-99.99,,2013-06-12 19:33:00,
2013-06-12 19:43:00,68.0,-99.9,29.84,WSW,240,17.0,-999.0,-999,-99.99,,,-99.99,,2013-06-12 19:43:00,
2013-06-12 19:52:00,68.0,-99.9,29.84,WSW,240,17.0,-999.0,-999,-99.99,,,-99.99,,2013-06-12 19:52:00,
2013-06-12 23:00:00,53.0,-99.9,29.81,SSE,160,12.0,-999.0,-999,-99.99,,,-99.99,,2013-06-12 23:00:00,
2013-06-12 23:53:00,53.0,-99.9,29.81,SSE,160,12.0,-999.0,-999,-99.99,,,-99.99,,2013-06-12 23:53:00,